ARG1583 SANT-SACO

Flight info

Callsign ARG1583
Flight time N/A
Altitude 31000
Route IMBOL3E IMBOL UW5 DONKA DONKA1Q
Aircraft B738/M-SDE2E3FGHIRWXY/LB1

Departure

Time N/A
Airport Teniente Benjamín Matienzo International Airport (SANT)

Arrival

Time 2026-05-03 20:44
Airport Ingeniero Aeronáutico Ambrosio L.V. Taravella International Airport (SACO)
Time Latitude Longitude Altitude Speed Heading
2026-05-03 20:15 -29.08208 -64.67089 30967 ft 434 kts 176°
2026-05-03 20:15 -29.14111 -64.65806 30962 ft 434 kts 176°
2026-05-03 20:16 -29.20084 -64.64506 30962 ft 434 kts 176°
2026-05-03 20:16 -29.25985 -64.63220 30964 ft 433 kts 176°
2026-05-03 20:17 -29.31908 -64.61928 30962 ft 433 kts 176°
2026-05-03 20:17 -29.37826 -64.60636 30961 ft 433 kts 176°
2026-05-03 20:18 -29.43781 -64.59333 30965 ft 432 kts 176°
2026-05-03 20:18 -29.49664 -64.58045 30965 ft 432 kts 176°
2026-05-03 20:19 -29.55572 -64.56750 30960 ft 432 kts 176°
2026-05-03 20:19 -29.61476 -64.55470 30962 ft 431 kts 177°
2026-05-03 20:20 -29.67354 -64.54357 30964 ft 430 kts 178°
2026-05-03 20:20 -29.73230 -64.53275 30946 ft 418 kts 178°
2026-05-03 20:21 -29.78872 -64.52213 30964 ft 407 kts 178°
2026-05-03 20:21 -29.84484 -64.51160 30668 ft 410 kts 178°
2026-05-03 20:21 -29.87285 -64.50629 30356 ft 405 kts 178°
2026-05-03 20:22 -29.90051 -64.50104 29977 ft 401 kts 178°
2026-05-03 20:22 -29.92797 -64.49583 29529 ft 398 kts 178°
2026-05-03 20:22 -29.95487 -64.49065 29111 ft 396 kts 177°
2026-05-03 20:22 -29.98232 -64.48492 28679 ft 394 kts 176°
2026-05-03 20:23 -30.00920 -64.47911 28266 ft 391 kts 176°
2026-05-03 20:23 -30.03581 -64.47331 27854 ft 389 kts 176°
2026-05-03 20:23 -30.06211 -64.46760 27457 ft 387 kts 176°
2026-05-03 20:23 -30.08849 -64.46190 27053 ft 385 kts 176°
2026-05-03 20:24 -30.11479 -64.45624 26651 ft 383 kts 176°
2026-05-03 20:24 -30.14094 -64.45063 26250 ft 381 kts 176°
2026-05-03 20:24 -30.15824 -64.44691 25980 ft 380 kts 176°
2026-05-03 20:24 -30.18392 -64.44141 25583 ft 379 kts 176°
2026-05-03 20:25 -30.21857 -64.43397 25048 ft 378 kts 175°
2026-05-03 20:25 -30.23568 -64.43030 24769 ft 377 kts 175°
2026-05-03 20:25 -30.26136 -64.42479 24369 ft 377 kts 175°
2026-05-03 20:25 -30.28724 -64.41922 23964 ft 376 kts 175°
2026-05-03 20:26 -30.31292 -64.41370 23557 ft 375 kts 175°
2026-05-03 20:26 -30.33852 -64.40818 23108 ft 372 kts 175°
2026-05-03 20:26 -30.36391 -64.40271 22683 ft 369 kts 175°
2026-05-03 20:26 -30.38907 -64.39728 22283 ft 366 kts 174°
2026-05-03 20:27 -30.41347 -64.38827 21864 ft 374 kts 157°
2026-05-03 20:27 -30.43526 -64.37137 21528 ft 376 kts 148°
2026-05-03 20:27 -30.45588 -64.35282 21140 ft 375 kts 147°
2026-05-03 20:27 -30.47627 -64.33404 20760 ft 372 kts 147°
2026-05-03 20:28 -30.49622 -64.31584 20394 ft 369 kts 149°
2026-05-03 20:28 -30.51749 -64.29864 20017 ft 365 kts 152°
2026-05-03 20:28 -30.53868 -64.28253 19658 ft 362 kts 152°
2026-05-03 20:28 -30.55948 -64.26695 19304 ft 360 kts 152°
2026-05-03 20:29 -30.58055 -64.25127 18946 ft 358 kts 152°
2026-05-03 20:29 -30.60153 -64.23574 18595 ft 356 kts 152°
2026-05-03 20:29 -30.62248 -64.22033 18147 ft 357 kts 152°
2026-05-03 20:29 -30.64351 -64.20495 17746 ft 355 kts 153°
2026-05-03 20:30 -30.66437 -64.18973 17417 ft 352 kts 153°
2026-05-03 20:30 -30.68500 -64.17471 17096 ft 348 kts 153°
2026-05-03 20:30 -30.70516 -64.16005 16807 ft 344 kts 153°
2026-05-03 20:30 -30.72533 -64.14542 16524 ft 339 kts 152°
2026-05-03 20:31 -30.74519 -64.13103 16264 ft 335 kts 152°
2026-05-03 20:31 -30.76526 -64.11760 15829 ft 331 kts 163°
2026-05-03 20:31 -30.78761 -64.11241 15299 ft 328 kts 180°
2026-05-03 20:31 -30.81033 -64.11047 14931 ft 327 kts 180°
2026-05-03 20:32 -30.83298 -64.10855 14593 ft 325 kts 179°
2026-05-03 20:32 -30.85547 -64.10656 14254 ft 324 kts 179°
2026-05-03 20:32 -30.87781 -64.10451 13921 ft 322 kts 179°
2026-05-03 20:32 -30.90021 -64.10238 13555 ft 321 kts 179°
2026-05-03 20:33 -30.92239 -64.10024 13164 ft 320 kts 179°
2026-05-03 20:33 -30.94512 -64.09804 12189 ft 337 kts 178°
2026-05-03 20:33 -30.96922 -64.09570 11135 ft 356 kts 178°
2026-05-03 20:33 -30.99422 -64.09322 10423 ft 364 kts 178°
2026-05-03 20:34 -31.01907 -64.09070 10255 ft 355 kts 178°
2026-05-03 20:34 -31.04385 -64.08820 10096 ft 351 kts 178°
2026-05-03 20:34 -31.06205 -64.08635 9948 ft 346 kts 178°
2026-05-03 20:34 -31.08535 -64.08397 9919 ft 323 kts 178°
2026-05-03 20:35 -31.10669 -64.08179 9869 ft 302 kts 178°
2026-05-03 20:35 -31.12741 -64.07969 9723 ft 287 kts 178°
2026-05-03 20:35 -31.14691 -64.07773 9291 ft 285 kts 178°
2026-05-03 20:35 -31.16683 -64.07575 8689 ft 290 kts 178°
2026-05-03 20:36 -31.18704 -64.07375 8194 ft 291 kts 178°
2026-05-03 20:36 -31.20704 -64.07175 7860 ft 285 kts 177°
2026-05-03 20:36 -31.22663 -64.06977 7575 ft 279 kts 177°
2026-05-03 20:36 -31.24585 -64.06784 7238 ft 277 kts 177°
2026-05-03 20:37 -31.26489 -64.06592 6963 ft 273 kts 177°
2026-05-03 20:37 -31.28379 -64.06403 6710 ft 274 kts 177°
2026-05-03 20:37 -31.30286 -64.06211 6461 ft 280 kts 177°
2026-05-03 20:37 -31.32278 -64.06011 6140 ft 289 kts 177°
2026-05-03 20:38 -31.34279 -64.05809 5831 ft 285 kts 176°
2026-05-03 20:38 -31.36235 -64.05610 5626 ft 276 kts 177°
2026-05-03 20:38 -31.38081 -64.05422 5504 ft 263 kts 177°
2026-05-03 20:38 -31.39880 -64.05247 5436 ft 257 kts 181°
2026-05-03 20:39 -31.41608 -64.05669 5341 ft 255 kts 214°
2026-05-03 20:39 -31.42900 -64.07021 5134 ft 248 kts 244°
2026-05-03 20:39 -31.43480 -64.08860 4874 ft 235 kts 268°
2026-05-03 20:39 -31.43565 -64.10742 4607 ft 228 kts 276°
2026-05-03 20:40 -31.43553 -64.12564 4354 ft 219 kts 277°
2026-05-03 20:40 -31.43539 -64.14294 4121 ft 208 kts 277°
2026-05-03 20:40 -31.43314 -64.15895 3819 ft 193 kts 302°
2026-05-03 20:40 -31.42530 -64.17061 3597 ft 173 kts 328°
2026-05-03 20:41 -31.41566 -64.17762 3408 ft 156 kts 333°
2026-05-03 20:41 -31.40646 -64.18409 3246 ft 152 kts 334°
2026-05-03 20:41 -31.39741 -64.19042 3018 ft 151 kts 334°
2026-05-03 20:41 -31.38849 -64.19665 2828 ft 147 kts 335°
2026-05-03 20:42 -31.37981 -64.20267 2648 ft 145 kts 336°
2026-05-03 20:42 -31.37048 -64.20702 2459 ft 144 kts
2026-05-03 20:42 -31.36062 -64.20728 2422 ft 142 kts 359°
2026-05-03 20:42 -31.35063 -64.20781 2163 ft 144 kts
2026-05-03 20:43 -31.34063 -64.20788 1986 ft 143 kts
2026-05-03 20:43 -31.33059 -64.20806 1772 ft 145 kts
2026-05-03 20:43 -31.32067 -64.20818 1622 ft 137 kts
2026-05-03 20:43 -31.31247 -64.20831 1616 ft 92 kts 359°
2026-05-03 20:44 -31.30815 -64.20837 1617 ft 31 kts
2026-05-03 20:44 -31.30739 -64.20838 1614 ft 8 kts 294°
2026-05-03 20:44 -31.30777 -64.20853 1611 ft 8 kts 171°
2026-05-03 20:44 -31.30834 -64.20843 1616 ft 9 kts 173°
2026-05-03 20:45 -31.30898 -64.20839 1616 ft 9 kts 178°
2026-05-03 20:45 -31.30962 -64.20837 1615 ft 9 kts 178°
2026-05-03 20:45 -31.31030 -64.20835 1614 ft 13 kts 180°
2026-05-03 20:45 -31.31168 -64.20834 1614 ft 24 kts 179°
2026-05-03 20:46 -31.31331 -64.20831 1617 ft 23 kts 179°
2026-05-03 20:46 -31.31464 -64.20880 1618 ft 20 kts 252°
2026-05-03 20:46 -31.31466 -64.20945 1612 ft 0 kts 270°
2026-05-03 20:47 -31.31466 -64.20949 1612 ft 3 kts 270°
2026-05-03 20:47 -31.31471 -64.21013 1612 ft 12 kts 254°
2026-05-03 20:47 -31.31506 -64.21079 1615 ft 8 kts 252°
2026-05-03 20:47 -31.31512 -64.21142 1612 ft 6 kts 266°
2026-05-03 20:48 -31.31513 -64.21151 1612 ft 1 kts 267°
2026-05-03 20:48 -31.31513 -64.21159 1612 ft 0 kts 267°